GW5269 Weather Reports


Display with metric or nautical units.
time (UTC)temp
F
wind
direction
speed
MPH
gust
MPH
rain 1hr
in
rain 24hr
in
rain mn
in
humidity
%
barometer
mb
20260510021955 54 190 3.0 6.0 0.00 0.00 0.00 79 1013.1
20260510021453 54 250 5.0 7.0 0.00 0.00 0.00 79 1012.9
20260510020950 54 170 3.0 14.0 0.00 0.00 0.00 80 1012.9
20260510020445 54 175 2.0 6.0 0.00 0.00 0.00 80 1012.9
20260510015940 54 141 1.0 3.0 0.00 0.00 0.00 80 1012.7
20260510015436 54 189 3.0 3.0 0.00 0.00 0.00 79 1012.9
20260510014931 53 219 0.0 3.0 0.00 0.00 0.00 81 1012.6
20260510014429 54 191 2.0 3.0 0.00 0.00 0.00 79 1012.6
20260510013926 54 199 3.0 4.0 0.00 0.00 0.00 78 1012.5
20260510013420 54 169 0.0 3.0 0.00 0.00 0.00 80 1012.5
20260510012916 54 134 2.0 3.0 0.00 0.00 0.00 80 1012.6
20260510012411 54 132 2.0 2.0 0.00 0.00 0.00 79 1012.6
20260510011906 54 192 1.0 2.0 0.00 0.00 0.00 80 1012.4
20260510011401 54 177 1.0 4.0 0.00 0.00 0.00 78 1012.3
20260510010858 54 156 1.0 3.0 0.00 0.00 0.00 79 1012.4
20260510010355 54 178 2.0 3.0 0.00 0.00 0.00 78 1012.0
20260510005851 54 191 1.0 2.0 0.00 0.00 0.00 78 1012.0
20260510005348 54 203 0.0 2.0 0.00 0.00 0.00 79 1012.0
20260510004845 54 178 2.0 2.0 0.00 0.00 0.00 78 1011.8
20260510004343 55 165 1.0 2.0 0.00 0.00 0.00 77 1011.8
20260510003841 55 203 2.0 4.0 0.00 0.00 0.00 78 1011.6
20260510003337 55 187 2.0 6.0 0.00 0.00 0.00 74 1011.5
20260510002836 55 130 1.0 3.0 0.00 0.00 0.00 77 1011.5
20260510002333 55 200 3.0 6.0 0.00 0.00 0.00 75 1011.6
20260510001830 56 134 3.0 3.0 0.00 0.00 0.00 74 1011.4
20260510001328 56 156 1.0 2.0 0.00 0.00 0.00 76 1011.6
20260510000824 56 272 4.0 7.0 0.00 0.00 0.00 74 1011.5
20260510000321 56 208 2.0 9.0 0.00 0.00 0.00 74 1011.5
20260509235818 56 192 1.0 6.0 0.00 0.00 0.00 74 1011.5
20260509235315 57 275 0.0 3.0 0.00 0.00 0.00 73 1011.3
20260509234811 57 201 2.0 4.0 0.00 0.00 0.00 74 1011.1
20260509234307 57 182 2.0 3.0 0.00 0.00 0.00 74 1011.3
20260509233806 57 207 4.0 7.0 0.00 0.00 0.00 74 1011.2
20260509233303 57 182 4.0 6.0 0.00 0.00 0.00 72 1011.2
20260509232759 58 191 2.0 6.0 0.00 0.00 0.00 71 1011.2
20260509232257 58 176 3.0 4.0 0.00 0.00 0.00 72 1011.2
20260509231753 58 273 2.0 7.0 0.00 0.00 0.00 71 1011.1
20260509231250 58 233 4.0 6.0 0.00 0.00 0.00 69 1011.3
20260509230747 58 171 1.0 3.0 0.00 0.00 0.00 70 1011.4
20260509230244 58 167 5.0 7.0 0.00 0.00 0.00 70 1011.4
20260509225739 58 212 3.0 6.0 0.00 0.00 0.00 70 1011.4
20260509225236 58 158 4.0 11.0 0.00 0.00 0.00 68 1011.4
20260509224731 59 214 3.0 7.0 0.00 0.00 0.00 68 1011.3
20260509224229 59 185 6.0 8.0 0.00 0.00 0.00 67 1011.4
20260509223725 58 182 3.0 4.0 0.00 0.00 0.00 68 1011.4
20260509223223 58 198 2.0 4.0 0.00 0.00 0.00 67 1011.4
20260509222719 58 140 2.0 3.0 0.00 0.00 0.00 67 1011.6
20260509222214 59 132 2.0 9.0 0.00 0.00 0.00 67 1011.6
20260509221711 59 59 2.0 3.0 0.00 0.00 0.00 67 1011.7
20260509221207 60 194 2.0 4.0 0.00 0.00 0.00 68 1011.5
20260509220703 60 188 3.0 7.0 0.00 0.00 0.00 66 1011.6
20260509220159 60 188 6.0 7.0 0.00 0.00 0.00 68 1011.3
20260509215655 60 249 3.0 6.0 0.00 0.00 0.00 70 1011.4
20260509215153 60 140 2.0 7.0 0.00 0.00 0.00 66 1011.8
20260509214650 59 197 1.0 4.0 0.00 0.00 0.00 70 1011.5
20260509214146 59 146 1.0 3.0 0.00 0.00 0.00 68 1011.3
20260509213643 60 28 2.0 6.0 0.00 0.00 0.00 65 1011.3
20260509213138 60 240 1.0 6.0 0.00 0.00 0.00 64 1011.5
20260509212636 60 158 2.0 7.0 0.00 0.00 0.00 66 1011.4
20260509212133 60 157 2.0 4.0 0.00 0.00 0.00 69 1011.6
20260509211629 60 228 9.0 13.0 0.00 0.00 0.00 65 1011.6
20260509211125 60 209 0.0 4.0 0.00 0.00 0.00 68 1011.3
20260509210623 60 216 2.0 4.0 0.00 0.00 0.00 69 1011.4
20260509210120 60 67 3.0 4.0 0.00 0.00 0.00 65 1011.3
20260509205620 60 119 5.0 8.0 0.00 0.00 0.00 63 1011.2
20260509205115 60 229 1.0 2.0 0.00 0.00 0.00 66 1011.5
20260509204611 60 110 1.0 8.0 0.00 0.00 0.00 66 1011.4
20260509204108 59 235 5.0 10.0 0.00 0.00 0.00 67 1011.4
20260509203604 60 191 3.0 17.0 0.00 0.00 0.00 65 1011.4
20260509203103 61 199 1.0 6.0 0.00 0.00 0.00 64 1011.6
20260509202556 61 95 2.0 8.0 0.00 0.00 0.00 64 1011.4
20260509202052 63 299 2.0 8.0 0.00 0.00 0.00 62 1011.4
20260509201547 62 185 1.0 4.0 0.00 0.00 0.00 66 1011.5
20260509201045 61 227 2.0 7.0 0.00 0.00 0.00 67 1011.6
20260509200544 61 265 1.0 6.0 0.00 0.00 0.00 63 1011.6
20260509200041 61 190 4.0 10.0 0.00 0.00 0.00 66 1011.6
20260509195537 61 176 2.0 6.0 0.00 0.00 0.00 69 1011.5
20260509195032 60 120 4.0 4.0 0.00 0.00 0.00 64 1011.5
20260509194527 60 147 4.0 6.0 0.00 0.00 0.00 62 1011.5
20260509194025 60 77 3.0 4.0 0.00 0.00 0.00 62 1011.5
20260509193524 60 52 2.0 3.0 0.00 0.00 0.00 64 1011.5
20260509193021 60 154 3.0 3.0 0.00 0.00 0.00 64 1011.5
20260509192517 60 274 1.0 4.0 0.00 0.00 0.00 67 1011.5
20260509192012 60 144 2.0 3.0 0.00 0.00 0.00 64 1011.5
20260509191507 60 211 3.0 6.0 0.00 0.00 0.00 67 1011.5
20260509191003 60 150 3.0 3.0 0.00 0.00 0.00 65 1011.7
20260509190500 59 215 1.0 2.0 0.00 0.00 0.00 64 1011.5
20260509185958 59 129 2.0 2.0 0.00 0.00 0.00 66 1011.5
20260509185455 59 236 1.0 2.0 0.00 0.00 0.00 66 1011.5
20260509184952 59 171 0.0 1.0 0.00 0.00 0.00 66 1011.6
20260509184451 60 105 5.0 8.0 0.00 0.00 0.00 60 1011.5
20260509183947 60 117 1.0 2.0 0.00 0.00 0.00 63 1011.3
20260509183446 60 68 1.0 1.0 0.00 0.00 0.00 57 1011.2
20260509182943 60 158 5.0 7.0 0.00 0.00 0.00 64 1011.4
20260509182439 59 239 1.0 4.0 0.00 0.00 0.00 64 1011.4
20260509181937 59 75 3.0 4.0 0.00 0.00 0.00 61 1011.4
20260509181435 59 160 4.0 4.0 0.00 0.00 0.00 62 1011.4
20260509180932 58 198 1.0 3.0 0.00 0.00 0.00 67 1011.2
20260509180427 58 169 4.0 7.0 0.00 0.00 0.00 67 1011.5
20260509175924 58 260 2.0 6.0 0.00 0.00 0.00 62 1011.4
20260509175421 58 187 4.0 6.0 0.00 0.00 0.00 64 1011.7
20260509174917 57 176 4.0 8.0 0.00 0.00 0.00 63 1011.6
20260509174413 56 158 6.0 9.0 0.00 0.00 0.00 66 1011.6
20260509173909 58 185 7.0 9.0 0.00 0.00 0.00 65 1011.6
20260509173409 59 167 2.0 6.0 0.00 0.00 0.00 69 1011.5
20260509172906 57 162 4.0 4.0 0.00 0.00 0.00 67 1011.4
20260509172403 56 178 3.0 4.0 0.00 0.00 0.00 68 1011.7
20260509171858 56 184 4.0 6.0 0.00 0.00 0.00 72 1011.6
20260509171354 55 158 2.0 7.0 0.00 0.00 0.00 74 1011.7
20260509170851 55 192 4.0 4.0 0.00 0.00 0.00 68 1011.7
20260509170348 54 162 2.0 4.0 0.00 0.00 0.00 72 1011.7
20260509165847 54 158 4.0 6.0 0.00 0.00 0.00 71 1011.7
20260509165342 53 160 4.0 4.0 0.00 0.00 0.00 74 1011.9
20260509164838 53 136 2.0 4.0 0.00 0.00 0.00 77 1011.8
20260509164335 53 158 3.0 4.0 0.00 0.00 0.00 76 1011.8
20260509163832 53 199 2.0 4.0 0.00 0.00 0.00 74 1011.9
20260509163328 53 142 2.0 6.0 0.00 0.00 0.00 73 1011.9
20260509162827 53 150 2.0 3.0 0.00 0.00 0.00 79 1011.7
20260509162320 53 193 5.0 8.0 0.00 0.00 0.00 74 1011.9
20260509161817 53 210 3.0 3.0 0.00 0.00 0.00 73 1011.9
20260509161314 53 216 2.0 10.0 0.00 0.00 0.00 71 1012.1
20260509160809 53 135 1.0 3.0 0.00 0.00 0.00 77 1012.0
20260509160305 54 141 4.0 6.0 0.00 0.00 0.00 77 1012.0
20260509155801 54 155 2.0 6.0 0.00 0.00 0.00 77 1012.0
20260509155257 54 154 3.0 6.0 0.00 0.00 0.00 75 1012.3
20260509154753 54 202 1.0 3.0 0.00 0.00 0.00 79 1012.1
20260509154250 53 188 3.0 6.0 0.00 0.00 0.00 75 1012.3
20260509153747 53 204 4.0 7.0 0.00 0.00 0.00 79 1012.1
20260509153243 53 199 2.0 4.0 0.00 0.00 0.00 79 1012.4
20260509152740 53 163 2.0 3.0 0.00 0.00 0.00 79 1012.5
20260509152237 52 215 1.0 6.0 0.00 0.00 0.00 80 1012.4
20260509151733 52 181 4.0 7.0 0.00 0.00 0.00 81 1012.3
20260509151229 52 163 2.0 4.0 0.00 0.00 0.00 83 1012.1
20260509150728 52 175 3.0 6.0 0.00 0.00 0.00 80 1012.4
20260509150226 52 145 2.0 3.0 0.00 0.00 0.00 82 1012.4
20260509145722 52 187 2.0 4.0 0.00 0.00 0.00 80 1012.5
20260509145217 52 185 2.0 3.0 0.00 0.00 0.00 83 1012.3
20260509144713 51 158 1.0 2.0 0.00 0.00 0.00 86 1012.3
20260509144211 51 204 2.0 4.0 0.00 0.00 0.00 85 1012.4
20260509143708 51 145 1.0 2.0 0.00 0.00 0.00 84 1012.3
20260509143205 50 203 2.0 2.0 0.00 0.00 0.00 85 1012.3
20260509142700 51 169 1.0 3.0 0.00 0.00 0.00 85 1012.1
20260509142158 50 158 1.0 2.0 0.00 0.00 0.00 85 1012.3
20260509141653 50 157 1.0 1.0 0.00 0.00 0.00 86 1012.4
20260509141150 49 140 0.0 3.0 0.00 0.00 0.00 86 1012.5
20260509140647 50 206 0.0 1.0 0.00 0.00 0.00 88 1012.7
20260509140145 49 179 1.0 4.0 0.00 0.00 0.00 87 1012.4
20260509135642 50 145 2.0 2.0 0.00 0.00 0.00 87 1012.5
20260509135140 50 218 1.0 2.0 0.00 0.00 0.00 87 1012.6
20260509134636 50 140 2.0 3.0 0.00 0.00 0.00 87 1012.6
20260509134133 50 155 0.0 1.0 0.00 0.00 0.00 86 1012.5
20260509133631 50 221 0.0 0.0 0.00 0.00 0.00 86 1012.3
20260509133128 50 198 0.0 0.0 0.00 0.00 0.00 87 1012.4
20260509132626 51 159 0.0 0.0 0.00 0.00 0.00 85 1012.3
20260509132124 50 201 0.0 0.0 0.00 0.00 0.00 87 1012.5
20260509131620 50 219 0.0 0.0 0.00 0.00 0.00 88 1012.3
20260509131117 49 208 0.0 0.0 0.00 0.00 0.00 90 1012.5
20260509130613 49 213 0.0 0.0 0.00 0.00 0.00 91 1012.6
20260509130110 49 244 0.0 0.0 0.00 0.00 0.00 92 1012.5
20260509125606 48 224 0.0 0.0 0.00 0.00 0.00 93 1012.5
20260509125102 48 217 0.0 0.0 0.00 0.00 0.00 92 1012.6
20260509124559 48 216 0.0 0.0 0.00 0.00 0.00 93 1012.6
20260509124056 47 134 0.0 0.0 0.00 0.00 0.00 93 1012.4
20260509123554 47 102 0.0 0.0 0.00 0.00 0.00 93 1012.3
20260509123051 47 103 0.0 0.0 0.00 0.00 0.00 93 1012.4
20260509122547 47 102 0.0 0.0 0.00 0.00 0.00 93 1012.4
20260509122044 47 104 0.0 0.0 0.00 0.00 0.00 92 1012.4
20260509121540 47 200 0.0 0.0 0.00 0.00 0.00 94 1012.7
20260509121038 47 199 0.0 0.0 0.00 0.00 0.00 94 1012.8
20260509120536 47 200 0.0 0.0 0.00 0.00 0.00 93 1012.8
20260509120034 47 174 0.0 0.0 0.00 0.00 0.00 93 1012.7
20260509115531 47 207 0.0 1.0 0.00 0.00 0.00 92 1012.8
20260509115029 47 179 0.0 2.0 0.00 0.00 0.00 93 1012.5
20260509114527 47 162 0.0 0.0 0.00 0.00 0.00 94 1012.7
20260509114026 47 172 0.0 0.0 0.00 0.00 0.00 95 1012.7
20260509113523 47 172 0.0 0.0 0.00 0.00 0.00 94 1012.6
20260509113021 47 207 0.0 0.0 0.00 0.00 0.00 94 1012.5
20260509112517 46 202 0.0 0.0 0.00 0.00 0.00 94 1012.7
20260509112014 46 208 0.0 0.0 0.00 0.00 0.00 94 1012.7
20260509111511 46 170 0.0 0.0 0.00 0.00 0.00 94 1012.6
20260509111008 46 171 0.0 0.0 0.00 0.00 0.00 94 1012.7
20260509110505 47 170 0.0 0.0 0.00 0.00 0.00 94 1012.6
20260509110002 47 170 0.0 0.0 0.00 0.00 0.00 94 1012.5
20260509105500 47 171 0.0 1.0 0.00 0.00 0.00 94 1012.5
20260509104957 47 220 0.0 0.0 0.00 0.00 0.00 93 1012.6
20260509104454 47 212 0.0 0.0 0.00 0.00 0.00 93 1012.5
20260509103951 47 216 0.0 0.0 0.00 0.00 0.00 92 1012.6
20260509103449 47 8 0.0 0.0 0.00 0.00 0.00 90 1012.6
20260509102947 47 241 0.0 0.0 0.00 0.00 0.00 90 1012.5
20260509102444 47 237 0.0 0.0 0.00 0.00 0.00 88 1012.4
20260509101940 47 237 0.0 0.0 0.00 0.00 0.00 88 1012.4
20260509101436 47 238 0.0 2.0 0.00 0.00 0.00 87 1012.5
20260509100934 48 108 0.0 0.0 0.00 0.00 0.00 86 1012.5
20260509100431 48 271 1.0 1.0 0.00 0.00 0.00 86 1012.5
20260509095927 48 152 0.0 0.0 0.00 0.00 0.00 85 1012.8
20260509095425 48 83 1.0 2.0 0.00 0.00 0.00 83 1012.7
20260509094922 48 91 1.0 2.0 0.00 0.00 0.00 82 1012.6
20260509094418 49 163 1.0 3.0 0.00 0.00 0.00 81 1012.5
20260509093916 48 154 0.0 0.0 0.00 0.00 0.00 82 1012.8
20260509093413 48 20 0.0 0.0 0.00 0.00 0.00 81 1012.7
20260509092912 49 191 0.0 0.0 0.00 0.00 0.00 80 1012.6
20260509092409 49 148 0.0 0.0 0.00 0.00 0.00 79 1012.4
20260509091907 49 241 0.0 2.0 0.00 0.00 0.00 77 1012.5
20260509091404 49 321 0.0 2.0 0.00 0.00 0.00 76 1012.6
20260509090901 49 91 2.0 3.0 0.00 0.00 0.00 77 1012.5
20260509090358 49 225 2.0 4.0 0.00 0.00 0.00 78 1012.4
20260509085856 49 149 0.0 1.0 0.00 0.00 0.00 77 1012.4
20260509085353 49 150 1.0 1.0 0.00 0.00 0.00 76 1012.5
20260509084849 49 149 0.0 1.0 0.00 0.00 0.00 76 1012.6
20260509084346 49 148 1.0 1.0 0.00 0.00 0.00 76 1012.5
20260509083844 49 122 0.0 0.0 0.00 0.00 0.00 75 1012.6
20260509083340 49 158 0.0 0.0 0.00 0.00 0.00 75 1012.6
20260509082837 49 95 0.0 0.0 0.00 0.00 0.00 74 1012.6
20260509082333 49 86 0.0 0.0 0.00 0.00 0.00 75 1012.5
20260509081831 49 105 1.0 2.0 0.00 0.00 0.00 75 1012.7
20260509081328 49 89 0.0 0.0 0.00 0.00 0.00 77 1012.7
20260509080826 49 104 0.0 0.0 0.00 0.00 0.00 75 1012.7
20260509080323 49 104 0.0 0.0 0.00 0.00 0.00 75 1012.6
20260509075821 49 130 0.0 0.0 0.00 0.00 0.00 75 1012.5
20260509075318 49 86 0.0 0.0 0.00 0.00 0.00 73 1012.6
20260509074815 49 86 0.0 0.0 0.00 0.00 0.00 73 1012.7
20260509074313 50 86 0.0 0.0 0.00 0.00 0.00 73 1012.4
20260509073809 50 89 0.0 0.0 0.00 0.00 0.00 72 1012.4
20260509073305 51 200 0.0 0.0 0.00 0.00 0.00 69 1012.5
20260509072802 51 169 1.0 1.0 0.00 0.00 0.00 69 1012.6
20260509072259 51 179 1.0 1.0 0.00 0.00 0.00 67 1012.4
20260509071756 51 177 1.0 2.0 0.00 0.00 0.00 66 1012.3
20260509071253 51 198 2.0 3.0 0.00 0.00 0.00 65 1012.4
20260509070749 52 226 0.0 1.0 0.00 0.00 0.00 63 1012.4
20260509070246 53 247 1.0 1.0 0.00 0.00 0.00 63 1012.3
20260509065742 53 234 1.0 3.0 0.00 0.00 0.00 57 1012.6
20260509065239 53 209 4.0 7.0 0.00 0.00 0.00 56 1012.3
20260509064735 53 185 3.0 4.0 0.00 0.00 0.00 56 1012.3
20260509064233 53 154 3.0 4.0 0.00 0.00 0.00 55 1012.4
20260509063730 53 136 3.0 3.0 0.00 0.00 0.00 56 1012.1
20260509063226 52 195 2.0 4.0 0.00 0.00 0.00 59 1012.0
20260509062724 53 184 2.0 3.0 0.00 0.00 0.00 58 1012.3
20260509062221 53 166 3.0 6.0 0.00 0.00 0.00 55 1012.4
20260509061718 53 219 1.0 7.0 0.00 0.00 0.00 56 1012.4
20260509061215 53 190 1.0 2.0 0.00 0.00 0.00 58 1012.6
20260509060713 53 184 1.0 2.0 0.00 0.00 0.00 58 1012.6
20260509060209 53 194 1.0 2.0 0.00 0.00 0.00 57 1012.3
20260509055704 52 270 1.0 1.0 0.00 0.00 0.00 57 1012.5
20260509055200 52 224 0.0 1.0 0.00 0.00 0.00 58 1012.7
20260509054657 52 242 1.0 1.0 0.00 0.00 0.00 57 1012.8
20260509054155 52 214 1.0 2.0 0.00 0.00 0.00 58 1012.8
20260509053653 52 139 0.0 2.0 0.00 0.00 0.00 58 1012.8
20260509053149 52 217 0.0 0.0 0.00 0.00 0.00 57 1012.7
20260509052647 52 244 1.0 4.0 0.00 0.00 0.00 58 1012.6
20260509052145 52 201 1.0 2.0 0.00 0.00 0.00 60 1013.0
20260509051642 52 133 0.0 2.0 0.00 0.00 0.00 61 1012.9
20260509051139 52 212 0.0 1.0 0.00 0.00 0.00 58 1013.1
20260509050637 52 189 0.0 1.0 0.00 0.00 0.00 59 1013.2
20260509050133 52 190 1.0 1.0 0.00 0.00 0.00 61 1013.2
20260509045631 53 194 1.0 1.0 0.00 0.00 0.00 61 1012.9
20260509045127 52 190 1.0 3.0 0.00 0.00 0.00 60 1013.1
20260509044625 52 194 1.0 2.0 0.00 0.00 0.00 62 1013.2
20260509044122 53 61 0.0 0.0 0.00 0.00 0.00 59 1013.1
20260509043618 52 190 1.0 3.0 0.00 0.00 0.00 61 1013.3
20260509043114 53 227 0.0 0.0 0.00 0.00 0.00 61 1013.2
20260509042611 53 241 0.0 0.0 0.00 0.00 0.00 62 1013.3
20260509042106 53 141 1.0 1.0 0.00 0.00 0.00 60 1013.4
20260509041603 53 266 1.0 4.0 0.00 0.00 0.00 59 1013.6
20260509041101 53 181 0.0 1.0 0.00 0.00 0.00 59 1013.3
20260509040559 53 177 1.0 2.0 0.00 0.00 0.00 61 1013.6
20260509040055 53 189 0.0 2.0 0.00 0.00 0.00 60 1013.2
20260509035552 53 134 2.0 2.0 0.00 0.00 0.00 58 1013.4
20260509035049 53 172 0.0 2.0 0.00 0.00 0.00 59 1013.3
20260509034547 53 207 0.0 1.0 0.00 0.00 0.00 61 1013.6
20260509034044 53 215 0.0 1.0 0.00 0.00 0.00 59 1013.4
20260509033541 53 180 1.0 3.0 0.00 0.00 0.00 59 1013.6
20260509033038 53 243 1.0 1.0 0.00 0.00 0.00 59 1013.7
20260509032535 53 162 0.0 1.0 0.00 0.00 0.00 58 1013.7
20260509032032 53 136 2.0 4.0 0.00 0.00 0.00 55 1013.7
20260509031530 53 203 1.0 1.0 0.00 0.00 0.00 60 1013.7
20260509031027 53 158 0.0 0.0 0.00 0.00 0.00 59 1013.8
20260509030525 53 218 0.0 2.0 0.00 0.00 0.00 60 1013.7
20260509030022 52 152 0.0 1.0 0.00 0.00 0.00 59 1013.7
20260509025518 53 240 0.0 3.0 0.00 0.00 0.00 63 1013.7
20260509025013 53 249 0.0 0.0 0.00 0.00 0.00 59 1013.7
20260509024509 53 255 0.0 0.0 0.00 0.00 0.00 58 1013.7
20260509024006 53 258 0.0 0.0 0.00 0.00 0.00 59 1013.9
20260509023504 53 264 0.0 0.0 0.00 0.00 0.00 57 1013.4
20260509023000 53 349 0.0 0.0 0.00 0.00 0.00 60 1013.7
20260509022457 53 347 0.0 0.0 0.00 0.00 0.00 60 1013.9